[[{"header":{"parameterUnit":"m.s-1","parameterCategory":1,"la1":30.2991,"la2":30.254,"lo1":-89.0895,"lo2":-89.0444,"dy":0.0017,"dx":0.0017,"nx":28,"ny":28,"refTime":"2025-09-04T09:00:00:Z","depth":0,"parameterNumber":2,"parameterNumberName":"U-component_of_WINDS"},"data":[0,0,0,0,0,0,0,0,0,0,0,0,0,0,0,0,0,0,0,0,0,0,0,0,0,0,0,0,0,0,0,0,0,0,0,0,0,0,0,0,0,0,0,0,0,0,0,0,0,0,0,0,0,0,0,0,0,0,1.7892,1.7892,0,1.7879,1.7879,1.7879,1.783,1.7829,1.7828,1.7827,1.7813,1.7814,1.7814,0,0,0,0,0,0,0,0,0,0,0,0,0,1.7872,1.7872,1.7892,1.7892,1.7892,1.7879,1.7879,1.7879,1.7831,1.7829,1.7828,1.7827,1.7813,1.7814,1.7814,0,0,0,0,0,0,0,0,0,0,0,0,0,1.7872,1.7873,1.7892,1.7866,1.7864,1.788,1.7879,1.7879,1.7831,1.7829,1.7828,1.7826,1.7813,1.7814,1.7815,1.7854,0,0,1.7818,1.7818,0,0,0,0,0,0,0,0,1.7872,1.7873,1.787,1.7868,1.7865,1.7855,1.7867,1.7871,1.7831,1.7843,1.7827,1.7825,1.7828,1.7828,1.7829,1.7853,1.7853,1.7818,1.7818,1.7819,1.7819,0,0,0,0,0,0,0,1.7872,1.7873,1.7887,1.787,1.7867,1.7854,1.7852,1.7867,1.7845,1.7842,1.7839,1.7838,1.7827,1.7828,1.7828,1.7853,1.7818,1.7819,1.7819,1.782,1.7905,1.7906,0,0,0,0,0,0,1.7876,1.7873,1.7888,1.7887,1.7865,1.7856,1.7854,1.786,1.7845,1.7841,1.7839,1.7836,1.7827,1.7827,1.7828,1.787,1.7819,1.782,1.782,1.7903,1.7905,1.7907,0,0,0,0,0,0,1.7876,1.7878,1.7888,1.7879,1.7879,1.7858,1.7865,1.7861,1.7862,1.7843,1.7838,1.7845,1.7826,1.7826,1.7847,1.7869,1.782,1.7821,1.7901,1.7904,1.7906,1.7957,0,0,0,0,0,0,1.7875,1.7878,1.7894,1.788,1.788,1.7909,1.7867,1.7861,1.7864,1.7859,1.7847,1.7844,1.7825,1.7846,1.7848,1.7869,1.7822,1.7899,1.7902,1.7905,1.7953,1.7961,1.7968,0,0,0,0,0,1.7875,1.7909,1.7895,1.7897,1.7899,1.791,1.791,1.7888,1.7866,1.7881,1.7868,1.7844,1.7867,1.7848,1.7851,1.7873,1.7897,1.7901,1.7905,1.795,1.7959,1.7967,0,0,0,0,0,0,1.7926,1.7907,1.7891,1.7922,1.7918,1.7902,1.792,1.7899,1.7901,1.7897,1.7869,1.7867,1.7891,1.7884,1.7864,1.7908,1.7878,1.7882,1.7911,1.792,1.7927,1.7927,1.7823,0,0,0,0,0,1.7942,1.7953,1.7935,1.7964,1.7962,1.7942,1.7946,1.7929,1.7923,1.7922,1.791,1.7906,1.7911,1.7916,1.792,1.7953,1.7947,1.7968,1.7976,1.7982,1.7985,1.7998,1.8006,1.7919,1.7919,1.7919,0,0,1.7973,1.7963,1.7972,1.7974,1.7969,1.7979,1.7941,1.7954,1.7961,1.7924,1.7941,1.7933,1.7926,1.7952,1.7963,1.7947,1.8008,1.7986,1.7991,1.7991,1.8003,1.8011,1.8018,1.7922,1.7921,1.7921,0,0,1.8034,1.8029,1.8051,1.8046,1.8039,1.8025,1.803,1.8017,1.8009,1.8027,1.7998,1.8006,1.8017,1.8012,1.8011,1.8068,1.8045,1.807,1.8107,1.812,1.8127,1.8133,1.815,1.8157,1.8074,1.8074,1.8075,0,1.8073,1.8089,1.8065,1.8079,1.808,1.8046,1.8067,1.8063,1.8058,1.8058,1.8041,1.8052,1.8046,1.8068,1.8081,1.8083,1.8086,1.8071,1.8128,1.8134,1.8139,1.8155,1.8162,1.8077,1.8077,1.8077,1.8076,0,1.8135,1.8147,1.8165,1.8159,1.8162,1.818,1.8158,1.8163,1.8146,1.8133,1.815,1.814,1.814,1.8145,1.8129,1.8164,1.8154,1.8133,1.8102,1.815,1.8165,1.8171,1.8081,1.808,1.808,1.8079,0,0,1.8229,1.8209,1.8216,1.8211,1.82,1.8207,1.8223,1.8223,1.8226,1.8224,1.8234,1.8243,1.8223,1.8222,1.8204,1.8217,1.8258,1.8193,1.8193,1.8203,1.8293,1.8307,1.8315,1.8244,1.8245,1.8246,1.8293,0,1.8285,1.831,1.8288,1.8316,1.8324,1.8291,1.8304,1.8298,1.8286,1.829,1.8276,1.8282,1.8256,1.8255,1.8265,1.8251,1.8275,1.8248,1.8251,1.8251,1.8251,1.8323,1.8339,1.8384,1.8299,1.83,1.8301,0,1.8354,1.8352,1.8381,1.8365,1.8368,1.838,1.8376,1.8382,1.8373,1.8363,1.8361,1.8339,1.8351,1.8322,1.8337,1.8318,1.8318,1.8311,1.8312,1.831,1.8277,1.832,1.8398,1.8404,1.831,1.8309,1.8308,0,1.8415,1.8421,1.8438,1.8436,1.8418,1.8427,1.842,1.8409,1.841,1.8407,1.8407,1.8406,1.8405,1.8404,1.8381,1.8363,1.8398,1.8368,1.8388,1.8388,1.8395,1.8395,1.8472,1.84,1.84,1.84,1.84,0,1.8478,1.8496,1.8465,1.8475,1.8494,1.8468,1.8487,1.8477,1.8467,1.8474,1.8446,1.8453,1.8424,1.8428,1.8411,1.8424,1.8424,1.8415,1.841,1.8416,1.8417,1.8414,1.8409,1.8401,1.8401,1.8401,1.84,0,1.8549,1.8529,1.8545,1.8527,1.8522,1.8537,1.852,1.8528,1.8514,1.8522,1.8523,1.85,1.8502,1.848,1.8479,1.8467,1.8487,1.8478,1.849,1.8486,1.8506,1.8503,1.8582,1.859,1.8516,1.8516,1.8517,0,1.8589,1.8602,1.8585,1.8587,1.8581,1.8586,1.8585,1.856,1.8561,1.855,1.8559,1.8559,1.8557,1.8562,1.8544,1.8542,1.8531,1.8558,1.853,1.8535,1.8528,1.8526,1.8526,1.8564,1.8565,1.8565,1.8566,0,1.8662,1.8651,1.8652,1.8649,1.8649,1.8646,1.864,1.8644,1.8616,1.8618,1.8619,1.8618,1.8615,1.8614,1.8608,1.86,1.8577,1.8575,1.8579,1.8584,1.859,1.8584,1.8503,1.8573,1.8572,1.8572,1.8571,1.8571,1.8717,1.8726,1.8714,1.8715,1.8708,1.8703,1.8709,1.8694,1.8695,1.8691,1.8676,1.8679,1.8667,1.8657,1.8651,1.8652,1.8638,1.8645,1.8646,1.8647,1.865,1.8592,1.8651,1.8651,1.8651,1.865,1.865,0,1.8786,1.8776,1.8777,1.877,1.877,1.875,1.8742,1.8743,1.8746,1.8738,1.8736,1.8736,1.8735,1.8717,1.8713,1.8717,1.8707,1.8717,1.8715,1.8713,1.8664,1.8659,1.8725,1.8725,1.8725,1.8725,1.8725,1.8725,1.8821,1.8834,1.8821,1.8829,1.8819,1.8822,1.8819,1.8813,1.8806,1.8807,1.8805,1.8794,1.8781,1.8775,1.8772,1.8767,1.8765,1.8778,1.8769,1.8724,1.8717,1.871,1.8705,1.8779,1.8779,1.8817,1.8818,1.8818]},{"header":{"parameterUnit":"m.s-1","parameterCategory":1,"la1":30.2991,"la2":30.254,"lo1":-89.0895,"lo2":-89.0444,"dy":0.0017,"dx":0.0017,"nx":28,"ny":28,"refTime":"2025-09-04T09:00:00:Z","depth":0,"parameterNumber":3,"parameterNumberName":"V-component_of_WINDS"},"data":[0,0,0,0,0,0,0,0,0,0,0,0,0,0,0,0,0,0,0,0,0,0,0,0,0,0,0,0,0,0,0,0,0,0,0,0,0,0,0,0,0,0,0,0,0,0,0,0,0,0,0,0,0,0,0,0,0,0,3.081,3.081,0,3.0831,3.0831,3.0831,3.0786,3.0784,3.0783,3.0782,3.0801,3.0803,3.0805,0,0,0,0,0,0,0,0,0,0,0,0,0,3.0728,3.073,3.081,3.081,3.081,3.0831,3.0831,3.0831,3.0786,3.0784,3.0783,3.0781,3.08,3.0803,3.0805,0,0,0,0,0,0,0,0,0,0,0,0,0,3.0758,3.073,3.081,3.0791,3.0789,3.0831,3.0831,3.0831,3.0787,3.0784,3.0782,3.078,3.08,3.0802,3.0805,3.0866,0,0,3.0814,3.0815,0,0,0,0,0,0,0,0,3.0756,3.0761,3.0793,3.0792,3.079,3.0804,3.0809,3.0843,3.0787,3.0787,3.0782,3.0779,3.0803,3.0806,3.0814,3.0867,3.0868,3.0814,3.0816,3.0817,3.0818,0,0,0,0,0,0,0,3.0754,3.076,3.0818,3.0794,3.0792,3.078,3.0781,3.0815,3.0807,3.0787,3.0784,3.0787,3.0802,3.0812,3.0814,3.0868,3.0814,3.0816,3.0818,3.0819,3.0968,3.097,0,0,0,0,0,0,3.0755,3.0758,3.0817,3.0819,3.0768,3.0783,3.0785,3.0801,3.0807,3.0806,3.0789,3.0785,3.0808,3.0811,3.0815,3.0884,3.0817,3.0819,3.0821,3.0966,3.0968,3.0971,0,0,0,0,0,0,3.0753,3.0761,3.0817,3.0788,3.0794,3.0787,3.0806,3.0803,3.0812,3.0808,3.0806,3.08,3.0806,3.0811,3.0853,3.0884,3.0821,3.0823,3.0963,3.0967,3.097,3.1024,0,0,0,0,0,0,3.0751,3.076,3.0784,3.0788,3.0795,3.0855,3.0808,3.0805,3.0818,3.0813,3.0818,3.0817,3.0805,3.0849,3.0856,3.0887,3.0825,3.096,3.0965,3.0969,3.102,3.1029,3.1037,0,0,0,0,0,3.0748,3.0799,3.0786,3.0793,3.0825,3.0857,3.0861,3.0847,3.082,3.0843,3.084,3.0817,3.088,3.0854,3.0861,3.0893,3.0958,3.0963,3.0968,3.1016,3.1027,3.1037,0,0,0,0,0,0,3.0799,3.0799,3.0785,3.0838,3.0848,3.085,3.0878,3.086,3.0877,3.0871,3.0852,3.0854,3.0899,3.0901,3.0871,3.0951,3.0914,3.0921,3.0948,3.0959,3.0968,3.0965,3.0828,0,0,0,0,0,3.0816,3.0843,3.0842,3.0889,3.0895,3.0886,3.0899,3.0887,3.0896,3.09,3.09,3.0909,3.093,3.0945,3.0965,3.102,3.1019,3.1046,3.1055,3.1062,3.1068,3.1094,3.1105,3.0988,3.0988,3.0988,0,0,3.0852,3.0856,3.0874,3.0899,3.0905,3.0932,3.089,3.092,3.0939,3.0905,3.0943,3.0944,3.0953,3.1001,3.1022,3.1003,3.11,3.1069,3.1074,3.1076,3.1101,3.1112,3.1122,3.0991,3.0991,3.099,0,0,3.0931,3.0938,3.0976,3.0983,3.0993,3.0986,3.0996,3.1,3.0999,3.1038,3.1011,3.1033,3.1072,3.1078,3.1086,3.1166,3.1144,3.1173,3.1218,3.1245,3.1254,3.1262,3.1288,3.1298,3.1179,3.1179,3.1179,0,3.0974,3.1014,3.0999,3.103,3.1041,3.1011,3.1049,3.1056,3.1072,3.108,3.1059,3.1105,3.1109,3.1157,3.1176,3.1185,3.1193,3.1171,3.1254,3.1262,3.1269,3.1294,3.1304,3.1182,3.1182,3.1182,3.1181,0,3.1066,3.1094,3.1124,3.1139,3.1153,3.1188,3.1177,3.1193,3.1179,3.1175,3.1213,3.1217,3.1236,3.1247,3.1234,3.1292,3.128,3.1258,3.122,3.1284,3.1306,3.1316,3.1187,3.1186,3.1185,3.1184,0,0,3.1177,3.1182,3.1193,3.1198,3.1206,3.1227,3.1259,3.1278,3.1291,3.1303,3.1328,3.1361,3.1339,3.1348,3.1336,3.1359,3.1419,3.1333,3.1333,3.1347,3.148,3.1496,3.1507,3.1405,3.1407,3.1408,3.1479,0,3.1253,3.1309,3.1295,3.135,3.1374,3.1345,3.1373,3.138,3.1376,3.1395,3.1391,3.1413,3.1384,3.1389,3.1411,3.1407,3.1445,3.1402,3.1427,3.1428,3.1423,3.1519,3.1536,3.1602,3.1488,3.1489,3.149,0,3.1349,3.1363,3.1421,3.1422,3.1432,3.1457,3.1472,3.1491,3.1498,3.1493,3.1503,3.1486,3.1516,3.148,3.152,3.1491,3.1501,3.15,3.1502,3.1502,3.1462,3.152,3.1623,3.1632,3.1505,3.1503,3.1502,0,3.1421,3.1455,3.1493,3.1499,3.1502,3.152,3.1522,3.1527,3.1538,3.1551,3.1557,3.1574,3.1582,3.1595,3.1582,3.1557,3.1624,3.1587,3.1619,3.1619,3.1633,3.1632,3.1737,3.1643,3.1643,3.1642,3.1642,0,3.1506,3.1541,3.1525,3.1548,3.1586,3.1569,3.1607,3.1606,3.161,3.1632,3.1608,3.1629,3.1611,3.163,3.162,3.1654,3.1658,3.1654,3.1651,3.1655,3.1655,3.1659,3.1653,3.1645,3.1644,3.1644,3.1643,0,3.1592,3.1583,3.1622,3.1621,3.1622,3.165,3.1649,3.167,3.1664,3.1691,3.1696,3.1687,3.1708,3.1696,3.1718,3.1711,3.1754,3.1745,3.1751,3.1748,3.178,3.1776,3.189,3.1903,3.1803,3.1804,3.1804,0,3.1646,3.1673,3.1675,3.1687,3.1691,3.1712,3.1722,3.1707,3.1719,3.1727,3.1746,3.1765,3.1778,3.1812,3.1807,3.1822,3.1813,3.1851,3.1815,3.1817,3.181,3.1808,3.1809,3.1858,3.1859,3.186,3.1861,0,3.1742,3.1735,3.1752,3.1767,3.178,3.1791,3.18,3.1812,3.1796,3.1811,3.1831,3.1841,3.1862,3.188,3.1893,3.1894,3.1874,3.1873,3.1881,3.1884,3.1886,3.1883,3.1769,3.187,3.1869,3.1868,3.1868,3.1868,3.1812,3.1833,3.1837,3.1856,3.186,3.1869,3.1887,3.1883,3.19,3.1916,3.1906,3.1929,3.1933,3.1948,3.1952,3.1969,3.1953,3.1966,3.1968,3.1971,3.1974,3.1885,3.1972,3.1972,3.1971,3.1971,3.1971,0,3.1904,3.1905,3.1922,3.1935,3.1949,3.193,3.1938,3.1951,3.1972,3.1978,3.1991,3.2013,3.203,3.2026,3.2041,3.2055,3.2046,3.2059,3.2057,3.2057,3.1988,3.1979,3.2066,3.2066,3.2066,3.2066,3.2066,3.2066,3.1953,3.1987,3.1981,3.2016,3.2016,3.2039,3.2045,3.2052,3.2056,3.2082,3.2095,3.2092,3.2093,3.2108,3.2122,3.212,3.2126,3.2142,3.2136,3.2072,3.2062,3.2053,3.2044,3.2144,3.2144,3.2203,3.2204,3.2204]}]]